Regional Weather Roundup
Issued by NWS Newport/Morehead, NC

Current Version | Previous Version | Graphics & Text | Print | Product List | Glossary On
Versions: 1 2 3 4 5 6 7 8 9 10 11 12 13 14 15 16 17 18 19 20 21 22 23 24 25 26 27 28 29 30 31 32 33 34 35 36 37 38 39 40 41 42 43 44 45 46 47 48 49 50
000 ASUS42 KMHX 250825 RWRMHX WEATHER ROUNDUP FOR EASTERN NORTH CAROLINA NATIONAL WEATHER SERVICE NEWPORT/MOREHEAD CITY NC 400 AM EDT WED MAY 25 2016 NOTE: "FAIR" INDICATES FEW OR NO CLOUDS BELOW 12,000 FEET WITH NO SIGNIFICANT WEATHER AND/OR OBSTRUCTIONS TO VISIBILITY NCZ015>017-031-032-045>047-102-103-250900- NORTH COAST CITY SKY/WX TMP DP RH WIND PRES REMARKS EDENTON CLEAR N/A N/A N/A W3 30.16S ELIZABETH CITY CLEAR 62 58 86 SW9 30.14R KITTY HAWK MOSUNNY 65 59 80 W7 30.14S MANTEO CLEAR 65 62 89 W3 30.16R $$ NCZ045>047-081-094-103-104-250900- CENTRAL COAST CITY SKY/WX TMP DP RH WIND PRES REMARKS FRISCO CLEAR 66 62 87 W5 30.16S $$ NCZ095-097-098-100-101-250900- SOUTHERN COAST CITY SKY/WX TMP DP RH WIND PRES REMARKS BEAUFORT CLEAR 67 60 78 W3 30.18R CEDAR ISLAND NOT AVBL JACKSONVILLE CLEAR 61 57 87 W6 30.17S PINEY ISLAND SUNNY N/A N/A N/A SW6 30.17 WILMINGTON PTCLDY 62 59 90 SW3 30.18S $$ NCZ011>013-027>030-043-044-078>080-089-090>093-098-250900- COASTAL PLAIN CITY SKY/WX TMP DP RH WIND PRES REMARKS AHOSKIE CLEAR 59 55 86 CALM 30.16R CLINTON CLEAR 59 58 96 CALM 30.19S ELIZABETHTOWN CLEAR 63 57 81 SW5 30.19R GOLDSBORO CLEAR 62 62 99 SW5 30.17R GREENVILLE CLEAR 63 59 88 SW6 30.18S HAVELOCK CLEAR 57 55 93 SW6 30.19R KENANSVILLE CLEAR 56 55 97 CALM 30.20R KINSTON CLEAR 61 57 87 SW5 30.18S NEW BERN CLEAR 62 56 80 W5 30.19R RICHLANDS CLEAR 57 56 96 CALM 30.19R ROCKY MOUNT CLEAR 60 56 86 S6 30.16S WASHINGTON CLEAR 61 56 84 SW5 30.17S WHITEVILLE CLEAR 62 58 86 CALM 30.19R $$ AMZ130-135-150-152-154-156-158-170-250-252-270-ANZ085-086-088-633-658-670-250900- MARINE OBSERVATIONS STATION/POSITION TIME TEMP WIND PRES WAVE SWELL AIR SEA DIR/SP/G HT/PER HT/PER (UTC) (F) (DEG/KT/KT) (MB) (FT/S) (FT/S) CHESAPEAKE LIGHT 0800 67 240/ 21/ 21 1020.0 64 E VA BEACH 0750 62 56 250/ 12/ 12 1019.7 3/ 5 2/ 5 DUCK 0800 67 61 240/ 10/ 13 1020.0 2 E DUCK 0711 62 N/A 2/11 OREGON INLET 0800 68 70 250/ 7/ 10 1020.8 13E OREGON INLT 0800 63 N/A 3/11 3/11 HATTERAS CG 0800 68 68 250/ 8/ 11 1020.8 DIAMOND BUOY 0750 69 69 250/ 10/ 10 1021.4 3/ 5 3/ 5 CAPE LOOKOUT 0800 69 260/ 6/ 7 1021.6 BEAUFORT LAB 0800 69 68 260/ 5/ 11 1021.1 30 SE NEW RVR IN 0725 73 N/A 3/ 4 27 SE WRIGHTSVLE 0808 73 72 250/ 10/ 14 1021.3 5 SE WRIGHTSVLE 0708 71 72 260/ 10/ 12 1022.4 225 S CAPE HAT 0750 73 78 30/ 6/ 8 1022.4 4/ 9 3/ 9 41 SE CHARLESTON 0750 76 75 210/ 4/ 6 1021.9 2/ 9 2/ 9 $$

USA.gov is the U.S. government's official web portal to all federal, state and local government web resources and services.